[[{"header":{"parameterUnit":"m.s-1","parameterCategory":1,"la1":30.2991,"la2":30.254,"lo1":-89.0895,"lo2":-89.0444,"dy":0.0017,"dx":0.0017,"nx":28,"ny":28,"refTime":"2025-07-16T09:00:00:Z","depth":0,"parameterNumber":2,"parameterNumberName":"U-component_of_WINDS"},"data":[0,0,0,0,0,0,0,0,0,0,0,0,0,0,0,0,0,0,0,0,0,0,0,0,0,0,0,0,0,0,0,0,0,0,0,0,0,0,0,0,0,0,0,0,0,0,0,0,0,0,0,0,0,0,0,0,0,0,-0.8589,-0.8591,0,-0.8755,-0.8756,-0.8758,-0.8924,-0.8926,-0.8928,-0.893,-0.9101,-0.9103,-0.9106,0,0,0,0,0,0,0,0,0,0,0,0,0,-0.8419,-0.8421,-0.8589,-0.8591,-0.8593,-0.8754,-0.8757,-0.8759,-0.8923,-0.8926,-0.8929,-0.8931,-0.91,-0.9103,-0.9106,0,0,0,0,0,0,0,0,0,0,0,0,0,-0.8529,-0.8422,-0.8589,-0.8695,-0.8706,-0.8754,-0.8757,-0.8759,-0.8923,-0.8926,-0.8929,-0.8932,-0.9099,-0.9103,-0.9106,-0.9063,0,0,-0.9118,-0.9119,0,0,0,0,0,0,0,0,-0.8523,-0.8535,-0.8677,-0.8688,-0.87,-0.8822,-0.8759,-0.8861,-0.8922,-0.884,-0.893,-0.8934,-0.9005,-0.9017,-0.9041,-0.9071,-0.9079,-0.9118,-0.912,-0.9122,-0.9123,0,0,0,0,0,0,0,-0.8515,-0.8529,-0.8655,-0.8679,-0.8693,-0.8735,-0.8754,-0.8779,-0.8902,-0.8848,-0.886,-0.8877,-0.9012,-0.9037,-0.9046,-0.9081,-0.9118,-0.9121,-0.9124,-0.9125,-0.9086,-0.9083,0,0,0,0,0,0,-0.8491,-0.8522,-0.865,-0.866,-0.8618,-0.8735,-0.8757,-0.8779,-0.8903,-0.8925,-0.8874,-0.8885,-0.9029,-0.9042,-0.9053,-0.9011,-0.9122,-0.9125,-0.9128,-0.9089,-0.9085,-0.9082,0,0,0,0,0,0,-0.8487,-0.8501,-0.8643,-0.8594,-0.8616,-0.8735,-0.8759,-0.8781,-0.8806,-0.8923,-0.8946,-0.8877,-0.9032,-0.9047,-0.906,-0.9019,-0.9127,-0.9131,-0.9093,-0.9088,-0.9084,-0.8925,0,0,0,0,0,0,-0.8481,-0.8498,-0.8482,-0.8593,-0.8617,-0.8645,-0.8756,-0.8782,-0.8811,-0.8826,-0.8931,-0.8951,-0.9036,-0.9053,-0.9063,-0.9026,-0.9133,-0.9097,-0.9091,-0.9085,-0.8934,-0.8915,-0.8899,0,0,0,0,0,-0.8474,-0.8431,-0.848,-0.8495,-0.86,-0.8643,-0.8657,-0.8755,-0.8807,-0.8793,-0.8869,-0.8948,-0.9022,-0.9053,-0.9066,-0.9029,-0.91,-0.9093,-0.9086,-0.8942,-0.8919,-0.8899,0,0,0,0,0,0,-0.8313,-0.8448,-0.8504,-0.8495,-0.8556,-0.8671,-0.8655,-0.8727,-0.8775,-0.8786,-0.8906,-0.8928,-0.8927,-0.898,-0.9012,-0.8994,-0.9072,-0.9067,-0.8959,-0.8938,-0.8921,-0.8907,-0.9137,0,0,0,0,0,-0.8277,-0.8299,-0.8416,-0.8397,-0.8425,-0.8534,-0.8557,-0.8627,-0.8695,-0.8722,-0.8799,-0.8862,-0.89,-0.8923,-0.8964,-0.8944,-0.8969,-0.8925,-0.8907,-0.8892,-0.8886,-0.8879,-0.8861,-0.9057,-0.9058,-0.9058,0,0,-0.8201,-0.8278,-0.8285,-0.8367,-0.8423,-0.8444,-0.8555,-0.8573,-0.8591,-0.8725,-0.8741,-0.8799,-0.8879,-0.8874,-0.8876,-0.8918,-0.8837,-0.8883,-0.887,-0.8872,-0.887,-0.8851,-0.8834,-0.9052,-0.9053,-0.9054,0,0,-0.8075,-0.8135,-0.8126,-0.8179,-0.8262,-0.8335,-0.8333,-0.8437,-0.8481,-0.8498,-0.86,-0.8623,-0.8686,-0.8738,-0.8773,-0.8667,-0.8742,-0.8678,-0.8584,-0.8577,-0.8561,-0.8548,-0.8509,-0.8494,-0.8672,-0.8671,-0.8671,0,-0.7971,-0.8006,-0.8112,-0.8124,-0.8157,-0.828,-0.8272,-0.8319,-0.8411,-0.8431,-0.8478,-0.8559,-0.8622,-0.8631,-0.8605,-0.863,-0.8631,-0.8665,-0.8555,-0.8543,-0.8532,-0.8497,-0.8482,-0.8663,-0.8664,-0.8665,-0.8665,0,-0.7874,-0.7897,-0.788,-0.7965,-0.7997,-0.7999,-0.8105,-0.8125,-0.8193,-0.8261,-0.8278,-0.8357,-0.8417,-0.8425,-0.8491,-0.8444,-0.8468,-0.8532,-0.8613,-0.8503,-0.8472,-0.8459,-0.865,-0.8654,-0.8656,-0.8658,0,0,-0.7649,-0.7793,-0.7785,-0.7825,-0.7926,-0.7946,-0.7954,-0.8012,-0.8027,-0.8087,-0.8096,-0.8147,-0.8208,-0.8247,-0.8322,-0.8315,-0.8225,-0.8381,-0.8385,-0.8348,-0.8178,-0.8127,-0.8109,-0.8277,-0.8275,-0.8273,-0.8171,0,-0.7539,-0.7559,-0.7654,-0.7647,-0.767,-0.7788,-0.7795,-0.7858,-0.7923,-0.7953,-0.8025,-0.8059,-0.8137,-0.8161,-0.816,-0.8236,-0.8192,-0.8245,-0.8287,-0.8287,-0.8261,-0.8093,-0.804,-0.7939,-0.8159,-0.8157,-0.8156,0,-0.7412,-0.7463,-0.7457,-0.7558,-0.7572,-0.7576,-0.7637,-0.7664,-0.7739,-0.7786,-0.783,-0.7913,-0.7929,-0.8006,-0.8029,-0.8063,-0.8086,-0.8126,-0.8125,-0.8131,-0.8213,-0.8093,-0.791,-0.7893,-0.8138,-0.8139,-0.8141,0,-0.7247,-0.7315,-0.732,-0.7351,-0.7469,-0.7469,-0.7519,-0.7597,-0.7626,-0.768,-0.77,-0.7755,-0.7784,-0.7826,-0.7922,-0.7968,-0.7934,-0.8019,-0.7974,-0.7971,-0.796,-0.7959,-0.7775,-0.7977,-0.7977,-0.7977,-0.7978,0,-0.7113,-0.7104,-0.7247,-0.725,-0.7244,-0.7356,-0.7347,-0.7408,-0.7477,-0.7494,-0.7601,-0.7615,-0.7742,-0.7771,-0.7846,-0.7854,-0.7867,-0.7906,-0.7926,-0.7896,-0.789,-0.7911,-0.792,-0.7974,-0.7974,-0.7975,-0.7976,0,-0.6926,-0.7022,-0.7035,-0.7146,-0.7174,-0.7164,-0.726,-0.7268,-0.734,-0.7361,-0.7372,-0.7485,-0.7525,-0.7625,-0.7692,-0.7743,-0.7729,-0.7767,-0.7703,-0.7716,-0.7665,-0.7667,-0.7486,-0.7468,-0.7682,-0.768,-0.7678,0,-0.6834,-0.683,-0.694,-0.6959,-0.7004,-0.7033,-0.7063,-0.7173,-0.72,-0.7285,-0.7282,-0.7331,-0.7375,-0.7433,-0.7522,-0.7573,-0.7612,-0.7545,-0.762,-0.759,-0.761,-0.7608,-0.7608,-0.7528,-0.7525,-0.7522,-0.7521,0,-0.6659,-0.6706,-0.6744,-0.6799,-0.6831,-0.688,-0.6935,-0.6945,-0.7069,-0.7094,-0.7135,-0.7169,-0.7237,-0.7284,-0.7349,-0.7402,-0.7481,-0.7496,-0.7489,-0.7457,-0.7419,-0.7437,-0.7656,-0.75,-0.7502,-0.7503,-0.7504,-0.7505,-0.6516,-0.6518,-0.6595,-0.6635,-0.6688,-0.6736,-0.6749,-0.6822,-0.6858,-0.6921,-0.6985,-0.702,-0.7096,-0.7192,-0.7239,-0.7268,-0.7309,-0.7298,-0.7295,-0.729,-0.7276,-0.7416,-0.7281,-0.7282,-0.7282,-0.7283,-0.7283,0,-0.6346,-0.6401,-0.6436,-0.6509,-0.654,-0.6613,-0.6677,-0.6699,-0.6727,-0.6791,-0.6833,-0.6881,-0.6927,-0.7019,-0.7073,-0.7079,-0.7117,-0.7089,-0.7089,-0.71,-0.7237,-0.7237,-0.7058,-0.7058,-0.7058,-0.7058,-0.7058,-0.7058,-0.626,-0.6267,-0.6324,-0.6358,-0.6415,-0.6449,-0.648,-0.6525,-0.6577,-0.6625,-0.6663,-0.6723,-0.6799,-0.686,-0.6905,-0.6931,-0.6946,-0.6906,-0.6943,-0.7069,-0.709,-0.711,-0.7112,-0.6908,-0.6908,-0.6804,-0.6803,-0.6802]},{"header":{"parameterUnit":"m.s-1","parameterCategory":1,"la1":30.2991,"la2":30.254,"lo1":-89.0895,"lo2":-89.0444,"dy":0.0017,"dx":0.0017,"nx":28,"ny":28,"refTime":"2025-07-16T09:00:00:Z","depth":0,"parameterNumber":3,"parameterNumberName":"V-component_of_WINDS"},"data":[0,0,0,0,0,0,0,0,0,0,0,0,0,0,0,0,0,0,0,0,0,0,0,0,0,0,0,0,0,0,0,0,0,0,0,0,0,0,0,0,0,0,0,0,0,0,0,0,0,0,0,0,0,0,0,0,0,0,6.768,6.7682,0,6.7832,6.7834,6.7836,6.7825,6.7823,6.7821,6.7818,6.7971,6.7977,6.7983,0,0,0,0,0,0,0,0,0,0,0,0,0,6.7377,6.7382,6.768,6.7682,6.7684,6.7832,6.7834,6.7836,6.7825,6.7823,6.782,6.7817,6.7969,6.7977,6.7984,0,0,0,0,0,0,0,0,0,0,0,0,0,6.7517,6.7384,6.768,6.7696,6.7699,6.7831,6.7834,6.7837,6.7826,6.7823,6.7819,6.7816,6.7967,6.7976,6.7985,6.8109,0,0,6.8013,6.8017,0,0,0,0,0,0,0,0,6.7509,6.7528,6.7692,6.7695,6.7699,6.7806,6.7783,6.7928,6.7827,6.7778,6.7818,6.7814,6.7919,6.7932,6.7968,6.8117,6.8123,6.8014,6.802,6.8024,6.8026,0,0,0,0,0,0,0,6.7499,6.7521,6.774,6.7694,6.7699,6.7695,6.7711,6.781,6.7865,6.7782,6.7781,6.78,6.792,6.7959,6.7971,6.8125,6.8014,6.8022,6.8028,6.8031,6.8381,6.8385,0,0,0,0,0,0,6.7486,6.7513,6.7735,6.7745,6.7594,6.7703,6.7721,6.7775,6.7864,6.7875,6.7802,6.7799,6.7945,6.7961,6.7977,6.8126,6.8024,6.8032,6.8038,6.8377,6.8382,6.8386,0,0,0,0,0,0,6.7479,6.7506,6.7729,6.7629,6.7657,6.7712,6.7773,6.778,6.7819,6.788,6.7889,6.7832,6.7943,6.7964,6.8076,6.8131,6.8036,6.8045,6.8373,6.8379,6.8384,6.8426,0,0,0,0,0,0,6.7471,6.7504,6.7552,6.763,6.7662,6.7827,6.7776,6.7785,6.7835,6.7831,6.791,6.792,6.7942,6.8062,6.8085,6.8142,6.8052,6.8368,6.8376,6.8382,6.842,6.8432,6.8443,0,0,0,0,0,6.746,6.7558,6.7555,6.7582,6.7725,6.783,6.7849,6.7872,6.7839,6.7888,6.7927,6.7917,6.8122,6.8074,6.81,6.816,6.8365,6.8373,6.8382,6.8415,6.843,6.8443,0,0,0,0,0,0,6.7485,6.7569,6.7566,6.7692,6.7754,6.7828,6.789,6.7888,6.796,6.7954,6.798,6.7998,6.811,6.8147,6.8092,6.8284,6.8239,6.8253,6.8255,6.827,6.8281,6.8269,6.806,0,0,0,0,0,6.7505,6.7585,6.7654,6.7758,6.779,6.7835,6.7882,6.7895,6.796,6.7986,6.8033,6.8095,6.8173,6.8224,6.83,6.8426,6.8442,6.848,6.8492,6.8501,6.8512,6.8579,6.8596,6.8414,6.8414,6.8413,0,0,6.7547,6.7603,6.7652,6.7765,6.7814,6.7895,6.7857,6.7944,6.8003,6.7999,6.8107,6.8144,6.8216,6.8335,6.839,6.8369,6.8566,6.8512,6.8518,6.8524,6.8589,6.8606,6.8621,6.8419,6.8418,6.8417,0,0,6.7665,6.7717,6.7808,6.7859,6.7934,6.7963,6.7985,6.806,6.8084,6.8194,6.8191,6.8262,6.8397,6.8447,6.849,6.8626,6.8619,6.865,6.8709,6.8774,6.8789,6.8801,6.8847,6.8863,6.8662,6.8662,6.8662,0,6.7708,6.783,6.7855,6.7943,6.7991,6.7992,6.8083,6.8131,6.8227,6.826,6.8236,6.8403,6.8452,6.8581,6.8614,6.8651,6.8675,6.864,6.8785,6.8798,6.881,6.8854,6.8871,6.8665,6.8664,6.8664,6.8664,0,6.7877,6.7962,6.8026,6.8119,6.8176,6.8265,6.8302,6.8356,6.8364,6.8396,6.8506,6.8564,6.865,6.8683,6.8692,6.8813,6.8798,6.8779,6.8734,6.883,6.8871,6.8889,6.8669,6.8668,6.8667,6.8666,0,0,6.8013,6.8119,6.8142,6.8183,6.8266,6.8331,6.842,6.8505,6.8549,6.8616,6.8689,6.8803,6.8786,6.8835,6.8849,6.8907,6.9007,6.8881,6.8883,6.89,6.9142,6.9153,6.9172,6.9004,6.9008,6.901,6.9135,0,6.8137,6.8294,6.8319,6.8457,6.8534,6.8535,6.8612,6.867,6.8702,6.8771,6.8806,6.8885,6.8858,6.8887,6.8945,6.8983,6.9056,6.8975,6.907,6.9073,6.9049,6.9194,6.9207,6.9321,6.9151,6.9154,6.9156,0,6.8302,6.8372,6.8518,6.8589,6.8622,6.8691,6.8769,6.8836,6.8902,6.8921,6.8975,6.8983,6.9073,6.9027,6.915,6.9094,6.9135,6.916,6.9165,6.9172,6.9118,6.9202,6.9359,6.9374,6.9182,6.918,6.9178,0,6.8383,6.8514,6.8617,6.8653,6.8739,6.8787,6.8825,6.8888,6.8937,6.9005,6.9037,6.9115,6.9158,6.9218,6.9246,6.921,6.9367,6.9323,6.9383,6.9382,6.9413,6.941,6.9575,6.9445,6.9445,6.9444,6.9444,0,6.8517,6.8605,6.8654,6.8718,6.8816,6.8844,6.894,6.8976,6.9032,6.9101,6.9108,6.9172,6.9207,6.9277,6.93,6.9397,6.9417,6.9433,6.9437,6.9431,6.9428,6.9456,6.9447,6.9449,6.9448,6.9447,6.9446,0,6.8622,6.866,6.8772,6.8844,6.8864,6.8933,6.8994,6.9055,6.9087,6.9174,6.9196,6.9245,6.9327,6.9362,6.9463,6.9478,6.9589,6.9589,6.9566,6.9567,6.9624,6.9617,6.981,6.9835,6.9691,6.9692,6.9693,0,6.8704,6.8771,6.8851,6.8898,6.8937,6.9013,6.9062,6.9092,6.9144,6.9223,6.9274,6.9356,6.9423,6.9554,6.9598,6.9675,6.9675,6.9737,6.9686,6.9677,6.9672,6.9667,6.9672,6.9745,6.9747,6.9748,6.9749,0,6.8843,6.8858,6.893,6.9008,6.9066,6.9129,6.919,6.9228,6.9267,6.9324,6.9408,6.946,6.9563,6.9644,6.9723,6.9761,6.9761,6.9765,6.9782,6.9775,6.9758,6.9765,6.9588,6.976,6.9759,6.9758,6.9757,6.9757,6.8938,6.8997,6.9061,6.914,6.9189,6.9246,6.9306,6.9345,6.9416,6.9501,6.9515,6.9604,6.9667,6.9773,6.9815,6.9884,6.9868,6.9894,6.99,6.9905,6.9907,6.9749,6.9899,6.9899,6.9898,6.9898,6.9898,0,6.9075,6.9117,6.9189,6.9274,6.9336,6.9331,6.9398,6.945,6.9528,6.9587,6.9653,6.9748,6.9826,6.9877,6.9955,7.0001,7.0003,7.002,7.0016,7.0024,6.9918,6.9894,7.0017,7.0017,7.0017,7.0017,7.0017,7.0017,6.9154,6.9253,6.9275,6.9398,6.9439,6.9526,6.9564,6.9616,6.9663,6.9769,6.9834,6.9867,6.9922,7.0004,7.0075,7.0088,7.0115,7.0133,7.0145,7.0044,7.0032,7.002,6.9997,7.014,7.014,7.0244,7.0245,7.0246]}]]